Location: Goheenville
(40.9070°N, 79.3720°W)
Time: 16:15:34
(UTC-04:00)

Meteor 2-10 Rocket - Visible Passes

Search period start: 22 September 2014 00:00
Search period end: 02 October 2014 00:00
Orbit: 734 x 886 km, 81.2° (Epoch: 03 September)

Date Brightness Start Highest point End Pass type
(mag) Time Alt. Az. Time Alt. Az. Time Alt. Az.
22 Sep 5.5 03:47:25 22° NNE 03:47:25 22° NNE 03:49:12 10° NNE visible
23 Sep 5.9 03:23:50 17° NNE 03:23:50 17° NNE 03:24:59 10° NNE visible
23 Sep 5.7 05:05:00 12° NW 05:05:00 12° NW 05:05:31 10° NNW visible
24 Sep 6.3 03:00:13 12° NNE 03:00:13 12° NNE 03:00:39 10° NNE visible
24 Sep 5.7 04:41:23 13° NNW 04:41:23 13° NNW 04:42:04 10° NNW visible
25 Sep 5.8 04:17:45 13° NNW 04:17:45 13° NNW 04:18:21 10° NNW visible
26 Sep 6.0 03:54:05 12° N 03:54:05 12° N 03:54:28 10° N visible
27 Sep 6.3 03:30:24 10° N 03:30:24 10° N 03:30:29 10° N visible
